カタログに戻る

STARLINK-34993

運用中通信SSO
NORAD 65389·PAYLOAD·🇺🇸 United States

打ち上げ Aug 30, 2025 から Vandenberg Space Force Base

Loading…

次のパス (今後24時間)

TLE

最新Source: CelesTrak SupGP

元期: Sep 14, 2026, 23:05 UTC

1 65389C 25191L   26257.96229167  .00073300  00000+0  22752-2 0  2572
2 65389  97.2847 124.0745 0001993  92.6923 161.6051 15.33404100    18

AllMySatでSTARLINK-34993をリアルタイム追跡

Download on the App Store